Observations for Trim Patrick St
| Time | AQI | Temp °C | Hum % | Pres Pa | CO μg/m³ | H₂S μg/m³ | NO μg/m³ | NO₂ μg/m³ | O₃ μg/m³ | SO₂ μg/m³ | PM1 μg/m³ | PM2.5 μg/m³ | PM10 μg/m³ |
|---|---|---|---|---|---|---|---|---|---|---|---|---|---|
| Thursday 27 August 2026 | |||||||||||||
| 16:36 | 3 | 21.7 | 73 | 38,460 | 0 | 1.23 | 2.99 | 15.86 | 49.9 | 2.98 | 14.86 | 20.66 | 22.72 |
| 16:35 | 3 | 21.7 | 73 | 38,460 | 0 | 0 | 2.42 | 9.64 | 47.23 | 2.74 | 15.71 | 22.14 | 24.35 |
| 16:34 | 3 | 21.7 | 73 | 38,460 | 0 | 0 | 2.71 | 9.44 | 49.21 | 3.29 | 13.14 | 19.26 | 21.18 |
| 16:33 | 3 | 21.7 | 73 | 38,460 | 0 | 0.14 | 2.86 | 11.52 | 46.15 | 2.93 | 12.29 | 18.53 | 20.39 |
| 16:32 | 3 | 21.7 | 73 | 38,460 | 0.14 | 3.13 | 2.81 | 15.67 | 39 | 3.83 | 14.86 | 19.95 | 21.95 |
| 16:31 | 3 | 21.7 | 73 | 38,460 | 0.56 | 7.33 | 2.53 | 15.88 | 52.45 | 3.5 | 14.86 | 21.37 | 23.51 |
| 16:30 | 3 | 21.7 | 73 | 38,460 | 0.63 | 8.99 | 3.05 | 33.86 | 38.88 | 4.9 | 14.86 | 22.08 | 24.29 |
| 16:29 | 3 | 21.7 | 74 | 38,460 | 0.02 | 1.86 | 2.44 | 15.68 | 45.1 | 3.31 | 14.86 | 21.34 | 23.47 |
| 16:27 | 3 | 21.7 | 73 | 38,460 | 0 | 0.65 | 2.39 | 12.67 | 53.4 | 2.86 | 14.86 | 21.39 | 23.53 |
| 16:25 | 3 | 21.7 | 73 | 38,460 | 0.02 | 1.15 | 2.22 | 11.94 | 51.85 | 3.27 | 14 | 19.23 | 21.15 |
| 16:24 | 3 | 21.7 | 74 | 38,460 | 0.14 | 1.62 | 2.77 | 12.04 | 54.58 | 2.8 | 14.86 | 20.63 | 22.7 |
| 16:22 | 3 | 21.6 | 74 | 38,460 | 0 | 0.84 | 2.23 | 11.97 | 56.86 | 2.67 | 14 | 18.49 | 20.34 |
| 16:21 | 3 | 21.6 | 74 | 38,460 | 0 | 2.37 | 2.04 | 14.65 | 46.15 | 3.35 | 16.57 | 22.06 | 24.27 |
| 16:20 | 3 | 21.6 | 74 | 38,460 | 0 | 4.32 | 1.44 | 28.36 | 50.5 | 3.65 | 17.43 | 23.48 | 25.82 |
| 16:19 | 3 | 21.6 | 73 | 38,460 | 0 | 1.81 | 1 | 15.17 | 53.49 | 2.89 | 14.86 | 20.66 | 22.72 |
| 16:18 | 3 | 21.6 | 73 | 38,460 | 0 | 0.07 | 1.08 | 9.87 | 49.34 | 3.08 | 13.14 | 18.51 | 20.36 |
| 16:17 | 3 | 21.5 | 73 | 38,460 | 0 | 1.02 | 1.82 | 8.38 | 53.7 | 3.38 | 13.14 | 17.79 | 19.57 |
| 16:16 | 3 | 21.5 | 74 | 38,460 | 0.09 | 4.09 | 2.24 | 12.47 | 53.44 | 3.39 | 14 | 19.92 | 21.91 |
| 16:14 | 3 | 21.5 | 74 | 38,460 | 0 | 0.44 | 2.28 | 10.79 | 56.6 | 2.54 | 16.57 | 22 | 24.2 |
| 16:13 | 3 | 21.5 | 73 | 38,460 | 0 | 0 | 2.2 | 7.92 | 53.55 | 3.29 | 14 | 20.66 | 22.72 |